�������l�o���
Date,Time,MP-1(��Sv/h),MP-2(��Sv/h),MP-3(��Sv/h),MP-4(��Sv/h),MP-5(��Sv/h),MP-6(��Sv/h),MP-7(��Sv/h),MP-8(��Sv/h),����,����(m/s),���J
2021/01/21,00:00,0.661,0.945,0.603,1.192,0.837,0.374,0.665,0.629,���k��,4.5,��
2021/01/21,00:10,0.660,0.946,0.602,1.193,0.838,0.375,0.665,0.628,���k��,5.5,��
2021/01/21,00:20,0.660,0.944,0.602,1.194,0.837,0.374,0.665,0.630,���k��,4.4,��
2021/01/21,00:30,0.659,0.947,0.602,1.191,0.839,0.374,0.666,0.627,��,4.0,��
2021/01/21,00:40,0.659,0.943,0.603,1.195,0.839,0.374,0.663,0.629,��,3.7,��
2021/01/21,00:50,0.659,0.945,0.602,1.192,0.837,0.373,0.664,0.630,��,3.2,��
2021/01/21,01:00,0.660,0.944,0.601,1.191,0.838,0.375,0.666,0.630,���k��,3.4,��
2021/01/21,01:10,0.658,0.944,0.603,1.191,0.839,0.374,0.666,0.629,���k��,3.7,��
2021/01/21,01:20,0.659,0.944,0.601,1.192,0.836,0.374,0.665,0.628,���k��,3.3,��
2021/01/21,01:30,0.659,0.946,0.602,1.193,0.837,0.373,0.665,0.629,���k��,3.4,��
2021/01/21,01:40,0.660,0.947,0.602,1.191,0.838,0.373,0.664,0.629,���k��,3.2,��
2021/01/21,01:50,0.660,0.946,0.603,1.191,0.837,0.374,0.664,0.629,���k��,3.0,��
2021/01/21,02:00,0.658,0.947,0.603,1.191,0.838,0.375,0.665,0.627,���k��,2.5,��
2021/01/21,02:10,0.662,0.944,0.602,1.194,0.838,0.374,0.665,0.631,���k��,1.9,��
2021/01/21,02:20,0.659,0.945,0.603,1.192,0.835,0.374,0.664,0.628,���k��,2.0,��
2021/01/21,02:30,0.660,0.945,0.603,1.191,0.838,0.374,0.664,0.629,���k��,2.0,��
2021/01/21,02:40,0.660,0.943,0.602,1.192,0.839,0.374,0.667,0.628,��,1.5,��
2021/01/21,02:50,0.660,0.944,0.602,1.193,0.837,0.376,0.665,0.629,��,0.6,��
2021/01/21,03:00,0.658,0.944,0.602,1.192,0.837,0.375,0.666,0.629,�k��,1.7,��
2021/01/21,03:10,0.660,0.946,0.603,1.192,0.837,0.374,0.666,0.630,�k��,1.2,��
2021/01/21,03:20,0.659,0.945,0.603,1.192,0.837,0.374,0.666,0.629,�k�k��,3.3,��
2021/01/21,03:30,0.660,0.947,0.600,1.192,0.837,0.375,0.666,0.628,�k�k��,4.4,��
2021/01/21,03:40,0.659,0.946,0.603,1.190,0.837,0.375,0.665,0.629,�k�k��,4.8,��
2021/01/21,03:50,0.660,0.947,0.602,1.192,0.837,0.375,0.664,0.630,�k�k��,5.2,��
2021/01/21,04:00,0.660,0.948,0.602,1.190,0.839,0.374,0.664,0.629,�k�k��,6.1,��
2021/01/21,04:10,0.659,0.946,0.603,1.194,0.838,0.374,0.667,0.629,�k��,6.4,��
2021/01/21,04:20,0.660,0.946,0.603,1.194,0.838,0.374,0.665,0.629,�k��,5.4,��
2021/01/21,04:30,0.662,0.946,0.601,1.191,0.836,0.374,0.666,0.630,�k�k��,5.1,��
2021/01/21,04:40,0.661,0.945,0.603,1.193,0.837,0.373,0.667,0.629,�k�k��,4.4,��
2021/01/21,04:50,0.660,0.945,0.602,1.194,0.839,0.372,0.665,0.630,�k��,4.4,��
2021/01/21,05:00,0.661,0.944,0.602,1.192,0.837,0.374,0.666,0.630,�k��,4.3,��
2021/01/21,05:10,0.660,0.946,0.603,1.193,0.837,0.374,0.665,0.628,�k��,4.6,��
2021/01/21,05:20,0.660,0.946,0.601,1.193,0.838,0.374,0.663,0.629,�k��,4.0,��
2021/01/21,05:30,0.659,0.945,0.603,1.191,0.835,0.374,0.665,0.629,�k��,2.9,��
2021/01/21,05:40,0.661,0.946,0.602,1.195,0.836,0.374,0.665,0.629,�k��,3.0,��
2021/01/21,05:50,0.660,0.945,0.600,1.192,0.835,0.375,0.664,0.629,��,2.0,��
2021/01/21,06:00,0.660,0.945,0.603,1.191,0.837,0.374,0.666,0.628,���쐼,1.5,��
2021/01/21,06:10,0.660,0.945,0.602,1.193,0.836,0.375,0.666,0.629,��,2.0,��
2021/01/21,06:20,0.661,0.945,0.604,1.193,0.836,0.374,0.665,0.629,���쐼,1.7,��
2021/01/21,06:30,0.661,0.943,0.602,1.192,0.835,0.374,0.665,0.628,�쐼,2.0,��
2021/01/21,06:40,0.660,0.944,0.602,1.191,0.835,0.373,0.665,0.629,��쐼,2.6,��
2021/01/21,06:50,0.659,0.946,0.603,1.192,0.836,0.376,0.665,0.629,��쐼,3.4,��
2021/01/21,07:00,0.660,0.945,0.603,1.191,0.835,0.374,0.667,0.630,��쐼,3.8,��
2021/01/21,07:10,0.659,0.944,0.601,1.191,0.836,0.374,0.666,0.629,��,3.9,��
2021/01/21,07:20,0.661,0.945,0.602,1.195,0.835,0.374,0.666,0.628,��,4.3,��
2021/01/21,07:30,0.660,0.943,0.602,1.192,0.835,0.376,0.665,0.628,��,4.4,��
2021/01/21,07:40,0.660,0.943,0.602,1.194,0.837,0.375,0.666,0.629,��,4.2,��
2021/01/21,07:50,0.661,0.944,0.604,1.193,0.838,0.375,0.665,0.629,��,5.1,��
2021/01/21,08:00,0.662,0.943,0.604,1.192,0.835,0.374,0.666,0.630,��,7.0,��
2021/01/21,08:10,0.659,0.945,0.602,1.194,0.837,0.377,0.666,0.629,��쐼,4.0,��
2021/01/21,08:20,0.656,0.943,0.602,1.193,0.838,0.374,0.667,0.629,��쐼,3.6,��
2021/01/21,08:30,0.660,0.945,0.604,1.193,0.836,0.375,0.666,0.629,��쐼,2.3,��
2021/01/21,08:40,0.660,0.943,0.604,1.193,0.837,0.374,0.667,0.629,��,0.6,��
2021/01/21,08:50,0.662,0.942,0.603,1.190,0.837,0.375,0.667,0.630,��쐼,1.1,��
2021/01/21,09:00,0.662,0.943,0.603,1.191,0.835,0.375,0.668,0.631,��쐼,1.2,��
2021/01/21,09:10,0.662,0.941,0.602,1.191,0.838,0.375,0.666,0.628,-,CALM,��
2021/01/21,09:20,0.663,0.942,0.604,1.190,0.837,0.375,0.668,0.631,-,CALM,��
2021/01/21,09:30,0.661,0.943,0.604,1.190,0.836,0.375,0.669,0.630,-,CALM,��
2021/01/21,09:40,0.662,0.942,0.606,1.191,0.838,0.375,0.669,0.631,-,CALM,��
2021/01/21,09:50,0.663,0.942,0.603,1.190,0.837,0.375,0.668,0.630,��,0.8,��
2021/01/21,10:00,0.663,0.943,0.604,1.190,0.838,0.376,0.667,0.629,��,1.1,�L
2021/01/21,10:10,0.663,0.940,0.604,1.192,0.837,0.376,0.666,0.631,-,-,�L
2021/01/21,10:20,0.662,0.939,0.605,1.192,0.841,0.376,0.666,0.631,-,-,��
2021/01/21,10:30,0.663,0.943,0.603,1.191,0.839,0.376,0.667,0.630,-,-,��
2021/01/21,10:40,0.663,0.943,0.604,1.193,0.839,0.376,0.666,0.630,-,-,��
2021/01/21,10:50,0.661,0.943,0.603,1.193,0.839,0.377,0.665,0.630,-,-,��
2021/01/21,11:00,0.662,0.943,0.606,1.192,0.839,0.376,0.666,0.631,-,-,��
2021/01/21,11:10,0.662,0.942,0.605,1.190,0.840,0.376,0.666,0.630,-,-,��
2021/01/21,11:20,0.662,0.942,0.605,1.193,0.841,0.375,0.667,0.631,-,-,��
2021/01/21,11:30,0.660,0.945,0.605,1.192,0.840,0.376,0.668,0.630,-,-,��
2021/01/21,11:40,0.660,0.947,0.605,1.190,0.840,0.376,0.665,0.631,-,-,��
2021/01/21,11:50,0.663,0.946,0.607,1.193,0.838,0.376,0.666,0.631,-,-,��
2021/01/21,12:00,0.665,0.945,0.605,1.195,0.838,0.376,0.666,0.631,-,-,��
2021/01/21,12:10,0.666,0.948,0.606,1.196,0.832,0.377,0.667,0.631,-,-,��
2021/01/21,12:20,0.663,0.950,0.604,1.194,0.827,0.376,0.666,0.633,-,-,��
2021/01/21,12:30,0.664,0.950,0.604,1.195,0.839,0.376,0.667,0.631,-,-,�L
2021/01/21,12:40,0.665,0.947,0.606,1.194,0.840,0.377,0.667,0.632,-,-,�L
2021/01/21,12:50,0.663,0.948,0.605,1.193,0.837,0.377,0.669,0.632,-,-,��
2021/01/21,13:00,0.666,0.946,0.604,1.193,0.841,0.378,0.667,0.631,-,-,��
2021/01/21,13:10,0.666,0.944,0.605,1.194,0.840,0.376,0.668,0.632,-,-,��
2021/01/21,13:20,0.665,0.947,0.606,1.194,0.839,0.377,0.669,0.633,-,-,��
2021/01/21,13:30,0.667,0.946,0.605,1.194,0.840,0.378,0.670,0.632,-,-,��
2021/01/21,13:40,0.667,0.948,0.606,1.194,0.837,0.378,0.670,0.630,-,-,��
2021/01/21,13:50,0.665,0.947,0.606,1.193,0.839,0.377,0.669,0.631,-,-,��
2021/01/21,14:00,0.667,0.946,0.608,1.196,0.840,0.378,0.671,0.628,-,-,��
2021/01/21,14:10,0.666,0.945,0.606,1.192,0.840,0.377,0.671,0.630,-,-,��
2021/01/21,14:20,0.665,0.943,0.607,1.197,0.842,0.377,0.671,0.628,-,-,��
2021/01/21,14:30,0.665,0.943,0.606,1.194,0.842,0.377,0.670,0.628,�쓌,1.2,��
2021/01/21,14:40,0.664,0.946,0.607,1.194,0.841,0.377,0.671,0.628,-,CALM,��
2021/01/21,14:50,0.664,0.945,0.607,1.195,0.843,0.381,0.671,0.629,��,1.1,��
2021/01/21,15:00,0.664,0.946,0.607,1.195,0.842,0.376,0.671,0.631,�k��,2.0,��
2021/01/21,15:10,0.664,0.945,0.605,1.196,0.842,0.376,0.670,0.630,�k�k��,3.2,��
2021/01/21,15:20,0.664,0.947,0.605,1.196,0.841,0.377,0.670,0.631,�k�k��,2.9,��
2021/01/21,15:30,0.663,0.950,0.605,1.196,0.841,0.378,0.670,0.630,�k�k��,2.9,��
2021/01/21,15:40,0.664,0.950,0.606,1.197,0.841,0.377,0.670,0.632,�k�k��,2.0,��
2021/01/21,15:50,0.663,0.949,0.606,1.195,0.842,0.377,0.669,0.633,�k�k��,2.6,��
2021/01/21,16:00,0.665,0.950,0.604,1.197,0.839,0.375,0.671,0.631,�k�k��,2.0,��
2021/01/21,16:10,0.664,0.948,0.608,1.195,0.840,0.377,0.669,0.630,�k,2.0,��
2021/01/21,16:20,0.664,0.950,0.608,1.194,0.840,0.376,0.670,0.632,�k�k��,2.2,��
2021/01/21,16:30,0.664,0.949,0.607,1.194,0.841,0.377,0.670,0.630,�k�k��,1.9,��
2021/01/21,16:40,0.665,0.950,0.605,1.193,0.843,0.375,0.669,0.630,�k,2.3,��
2021/01/21,16:50,0.664,0.948,0.606,1.195,0.843,0.377,0.669,0.630,�k,2.2,��
2021/01/21,17:00,0.663,0.949,0.606,1.195,0.843,0.376,0.668,0.630,�k�k��,2.2,��
2021/01/21,17:10,0.665,0.947,0.606,1.193,0.841,0.376,0.669,0.631,�k�k��,2.5,��
2021/01/21,17:20,0.665,0.949,0.607,1.194,0.842,0.377,0.667,0.629,�k�k��,2.8,��
2021/01/21,17:30,0.664,0.949,0.606,1.194,0.843,0.377,0.667,0.631,�k�k��,2.8,��
2021/01/21,17:40,0.663,0.951,0.605,1.195,0.842,0.377,0.668,0.630,�k,3.5,��
2021/01/21,17:50,0.663,0.949,0.606,1.195,0.842,0.375,0.668,0.630,�k,3.6,��
2021/01/21,18:00,0.663,0.948,0.605,1.193,0.841,0.377,0.667,0.630,�k�k��,2.0,��
2021/01/21,18:10,0.663,0.948,0.607,1.194,0.842,0.375,0.668,0.630,�k�k��,2.6,��
2021/01/21,18:20,0.666,0.948,0.604,1.193,0.843,0.376,0.667,0.629,�k��,2.6,��
2021/01/21,18:30,0.663,0.948,0.603,1.192,0.840,0.376,0.670,0.630,�k�k��,2.3,��
2021/01/21,18:40,0.663,0.948,0.605,1.195,0.841,0.377,0.669,0.631,�k�k��,2.8,��
2021/01/21,18:50,0.663,0.946,0.604,1.192,0.842,0.376,0.668,0.630,�k�k��,2.2,��
2021/01/21,19:00,0.663,0.948,0.606,1.192,0.842,0.378,0.668,0.631,�k,1.2,��
2021/01/21,19:10,0.662,0.949,0.604,1.194,0.842,0.377,0.669,0.630,�k,2.3,��
2021/01/21,19:20,0.662,0.947,0.605,1.195,0.842,0.378,0.667,0.629,�k,1.7,��
2021/01/21,19:30,0.662,0.949,0.606,1.196,0.840,0.377,0.669,0.631,�k,1.7,��
2021/01/21,19:40,0.664,0.950,0.606,1.194,0.841,0.377,0.668,0.631,�k�k��,1.7,��
2021/01/21,19:50,0.663,0.949,0.605,1.193,0.841,0.376,0.667,0.630,�k��,1.2,��
2021/01/21,20:00,0.663,0.949,0.605,1.192,0.842,0.376,0.667,0.631,���k��,2.0,��
2021/01/21,20:10,0.665,0.948,0.604,1.191,0.842,0.377,0.668,0.632,��,2.3,��
2021/01/21,20:20,0.662,0.948,0.607,1.195,0.840,0.376,0.667,0.629,��,1.7,��
2021/01/21,20:30,0.663,0.949,0.605,1.196,0.840,0.377,0.668,0.629,��,2.3,��
2021/01/21,20:40,0.664,0.950,0.606,1.193,0.841,0.376,0.667,0.631,��,2.6,��
2021/01/21,20:50,0.663,0.949,0.605,1.192,0.841,0.378,0.667,0.630,��,2.6,��
2021/01/21,21:00,0.664,0.949,0.604,1.194,0.841,0.376,0.666,0.631,��,2.9,��
2021/01/21,21:10,0.664,0.948,0.606,1.194,0.841,0.376,0.667,0.631,���k��,3.4,��
2021/01/21,21:20,0.664,0.949,0.606,1.195,0.841,0.377,0.668,0.630,���k��,3.1,��
2021/01/21,21:30,0.662,0.949,0.604,1.192,0.840,0.377,0.668,0.631,��,2.0,��
2021/01/21,21:40,0.665,0.950,0.604,1.194,0.841,0.377,0.667,0.630,�k��,1.9,��
2021/01/21,21:50,0.665,0.948,0.606,1.193,0.841,0.378,0.668,0.629,�k��,2.5,��
2021/01/21,22:00,0.664,0.949,0.607,1.194,0.841,0.376,0.668,0.631,�k��,2.6,��
2021/01/21,22:10,0.663,0.947,0.606,1.194,0.841,0.376,0.667,0.630,�k��,3.0,��
2021/01/21,22:20,0.665,0.947,0.605,1.193,0.841,0.376,0.669,0.631,�k��,2.5,��
2021/01/21,22:30,0.665,0.948,0.604,1.193,0.842,0.378,0.666,0.630,�k�k��,2.2,��
2021/01/21,22:40,0.665,0.947,0.604,1.195,0.841,0.377,0.667,0.630,�k��,2.2,��
2021/01/21,22:50,0.663,0.947,0.605,1.194,0.841,0.376,0.666,0.630,��,0.9,��
2021/01/21,23:00,0.666,0.947,0.603,1.194,0.842,0.375,0.668,0.632,-,CALM,��
2021/01/21,23:10,0.665,0.949,0.605,1.194,0.840,0.377,0.668,0.630,�쐼,1.2,��
2021/01/21,23:20,0.666,0.949,0.605,1.195,0.842,0.377,0.667,0.632,�쐼,2.0,��
2021/01/21,23:30,0.665,0.948,0.606,1.196,0.841,0.378,0.668,0.630,���쐼,2.5,��
2021/01/21,23:40,0.665,0.947,0.605,1.195,0.840,0.376,0.668,0.627,��,2.8,��
2021/01/21,23:50,0.664,0.947,0.607,1.192,0.841,0.377,0.668,0.632,���k��,1.2,��
